Other Public Products
Issued by NWS Grand Forks, ND

Home | Current Version | Previous Version | Text Only | Print | Product List | Glossary On
Versions: 1 2 3 4 5 6 7 8 9 10 11 12 13 14 15 16 17 18 19 20 21 22 23 24 25 26 27 28 29 30 31 32 33 34 35 36 37 38 39 40 41 42 43 44 45 46 47 48 49 50
000
FPUS83 KFGF 241431
OPUFGF
PRAIRIE TO PINES WEATHER ROUNDUP
NATIONAL WEATHER SERVICE EASTERN NORTH DAKOTA/GRAND FORKS ND
800 AM CST FRI FEB 24 2017

 **SATELLITE DATA USED TO AUGMENT SKY COVER AT AUTOMATED STATIONS**
 *****  WEATHER ACROSS EASTERN NORTH DAKOTA  *****

CITY           SKY/WX    TMP DP  RH WIND       PRES   REMARKS
GRAND FORKS    CLOUDY    17   5  59 NE7       30.15R WCI   8
GRAND FORKS AF CLOUDY    16  10  75 NE7       30.15R WCI   7
GRAND CITY NWS NOT AVBL
BUXTON         NOT AVBL
DEVILS LAKE    FAIR      14  10  85 N14       30.12R WCI  -1
FARGO          FAIR      19  12  74 N15       30.11R WCI   5
WAHPETON ARPT  FAIR      19   9  63 N13       30.08S WCI   7
$$

 *****  WEATHER ACROSS CENTRAL AND WESTERN NORTH DAKOTA  *****

CITY           SKY/WX    TMP DP  RH WIND       PRES   REMARKS
JAMESTOWN      FAIR      19  15  84 NW8       30.09S WCI   9
BISMARCK       CLOUDY    20  14  77 NW3       30.15R
MINOT          FAIR      17  11  77 W5        30.14S WCI  10
MINOT AFB      FAIR      11   8  85 W3        30.14R
GARRISON         N/A     16  12  84 N6        30.12S WCI   7
WILLISTON      CLOUDY    18  15  88 CALM      30.14S
DICKINSON      FAIR       4   0  83 W3        30.08R
HETTINGER      FAIR      12   7  80 CALM      30.10R
$$

 *****  OTHER OBSERVATIONS NORTHEAST NORTH DAKOTA  *****

CITY           SKY/WX    TMP DP  RH WIND       PRES   REMARKS
WALHALLA       NOT AVBL
LANGDON        NOT AVBL
CAVALIER         N/A     12   5  73 N7        30.17S WCI   2
GRAFTON        PTSUNNY   12   7  79 N6        30.18S WCI   3
CANDO          NOT AVBL
FORT TOTTEN      N/A     15  13  92 N5        29.95S WCI   7
ROLLA          CLOUDY    12  12 100 N10       30.13S WCI  -1
RUGBY            N/A      7   5  92 N5        30.14S WCI  -2
 ***** THE ABOVE OBSERVATIONS ARE NON NWS ARE NOT QUALITY
        CONTROLLED AND MAY MIS-REPORT RAIN FOR SNOW...
$$

 *****  OTHER OBSERVATIONS SOUTHEAST NORTH DAKOTA *****

CITY           SKY/WX    TMP DP  RH WIND       PRES   REMARKS
COOPERSTOWN    PTSUNNY   18  16  93 CALM      30.11R
VALLEY CITY    PTSUNNY   18  18 100 N3        30.12S
OAKES          NOT AVBL
GWINNER        FAIR      19  18  93 N13       30.08F WCI   7
SHEYENNE NWR     N/A     17  11  76 N6        29.95S WCI   9
BUFFALO        NOT AVBL
WYNDMERE         N/A     19  12  73 N15         N/A  WCI   5
 ***** THE ABOVE OBSERVATIONS ARE NON NWS ARE NOT QUALITY
       CONTROLLED AND MAY MIS-REPORT RAIN FOR SNOW...
$$

  *****  WEATHER ACROSS NORTHERN MINNESOTA  *****

CITY           SKY/WX    TMP DP  RH WIND       PRES   REMARKS
FLAG ISLAND    FAIR       3   0  85 NW6       30.11R WCI  -8
WARROAD        FAIR       3   0  85 NW7       30.12R WCI  -9
ROSEAU         FAIR       5   0  78 NW3       30.13S
HALLOCK        CLOUDY    12   9  85 N8        30.16R WCI   1
THF RVR FALLS  MOCLDY    11   5  77 N9        30.12R WCI  -2
HALSTAD          N/A     17  10  74 N14         N/A  WCI   3
FOSSTON        FAIR      10   7  85 N10       30.07F WCI  -3
BAUDETTE       FAIR       2  -2  83 NW5       30.08S WCI  -8
WASKISH        MOCLDY     7   3  85 N3        30.07R
CROOKSTON      CLOUDY    16   7  67 N9        30.15R WCI   4
$$
  *****  WEATHER ACROSS CENTRAL AND WEST MINNESOTA  *****

CITY           SKY/WX    TMP DP  RH WIND       PRES   REMARKS
BEMIDJI        FAIR       8   4  86 N7        30.04S WCI  -4
PARK RAPIDS    FAIR      11   3  70 N9        30.00S WCI  -2
WADENA         FAIR      12   7  79 N14       29.99F WCI  -3
DETROIT LAKES  FAIR      14   9  79 N8        30.04S WCI   3
MOORHEAD       FAIR      18  10  73 N16       30.10F WCI   3
FERGUS FALLS   FAIR      18   7  62 N14G22    30.09S WCI   4
ELBOW LAKE     FAIR      17   9  70 N14G21    30.02S WCI   3
MORRIS MN      FAIR      19  10  68 N23G29    30.00R WCI   2
STAPLES        FAIR      14   7  73 N13       29.98S WCI   0
WHEATON        FAIR      18  10  73 N16G22    30.08R WCI   3
$$
  *****  WEATHER ELSEWHERE ACROSS MINNESOTA  *****

CITY           SKY/WX    TMP DP  RH WIND       PRES   REMARKS
DULUTH         CLOUDY    16  10  77 N12       29.92S WCI   3
INTRNTL FALLS  FAIR       9   2  73 N7        30.05S WCI  -2
ELY            FAIR      10   1  67 NE3       29.98S
CLOQUET        CLOUDY    16  10  79 N13G20    29.92S WCI   2
BRAINERD       FAIR      15   8  73 N13       29.97S WCI   1
HIBBING        FAIR      12   5  73 N12       29.97S WCI  -2
ALEXANDRIA     FAIR      17   9  70 N15       29.97R WCI   2
SAINT CLOUD    FAIR      21  11  65 N15G26    29.90S WCI   8
MINNEAPOLIS    CLOUDY    25  15  66 N21       29.83R WCI  11
$$

  *****  WEATHER ACROSS SOUTH DAKOTA  *****

CITY           SKY/WX    TMP DP  RH WIND       PRES   REMARKS
SIOUX FALLS    CLOUDY    21  15  78 N24G33    29.90R WCI   4
BROOKINGS      FAIR      19  12  74 N22G30    29.91R WCI   2
WATERTOWN      FAIR      18  10  71 N24G30    29.96R WCI   0
HURON          FAIR      20  13  74 N21G28    30.03R WCI   4
SISSETON         N/A     19  13  77 N22       30.05R WCI   2
ABERDEEN       FAIR      19  12  74 N16G25    30.08R WCI   4
MITCHELL       CLOUDY    22  15  75 N21       30.00R WCI   6
PIERRE         FAIR      20  14  77 N12       30.09R WCI   8
MOBRIDGE       FAIR      18  12  77 NW6       30.08R WCI  10
RAPID CITY     CLOUDY    17  13  84 N10       30.05R WCI   5
$$

  *****  SOME WEATHER IN NEARBY STATES *****

CITY           SKY/WX    TMP DP  RH WIND       PRES   REMARKS
GLASGOW MT     CLOUDY    25  21  85 E8        30.08F WCI  16
GREAT FALLS MT CLOUDY    24  20  84 CALM      29.97R
CHEYENNE WY    LGT SNOW  13  10  88 N5        29.84R FOG     WCI   5
SCOTTSBLUFF NE CLOUDY    20  14  77 N5        29.96R WCI  13
OMAHA NE       FRZ RAIN  28  24  85 N23G30    29.72R FOG     WCI  14
DES MOINES IA  DRIZZLE   35  32  88 N15       29.60R FOG
DAVENPORT IA   CLOUDY    37  36  96 NE16      29.45S FOG
CHICAGO IL     CLOUDY    39  37  92 N15       29.49R FOG
EAU CLAIRE WI  CLOUDY    27  24  89 NE13      29.75S WCI  16
LA CROSSE WI   MIX PCPN  31  27  85 N14       29.67F WCI  21
$$

  *****  SOME NATIONAL WEATHER *****

CITY           SKY/WX    TMP DP  RH WIND       PRES   REMARKS
LA GUARDIA NY  PTSUNNY   60  50  69 S6        29.95R
RALEIGH NC     FAIR      61  56  83 CALM      29.97R
ATLANTA GA     FAIR      61  57  87 SE5       29.91S
NEW ORLEANS LA PTSUNNY   67  63  87 S8        29.81R
OKLAHOMA CITY  FAIR      37  28  70 NW20G29   29.82R
ALBUQUERQUE NM FAIR      30  18  60 SW7       29.93R WCI  23
SALT LAKE CITY CLOUDY    27  20  75 W12       30.00R WCI  17
LOS ANGELES CA FAIR      46  24  42 N6        30.13R
BOISE ID       NOT AVBL
SEATTLE WA     CLOUDY    35  29  78 SE7       30.14S
$$

*** WEATHER ACROSS MANITOBA...SASKATCHEWAN AND ONTARIO ***
                ***ONTARIO***

CITY           SKY/WX    TMP DP  RH WIND       PRES   REMARKS
GERALDTON      CLOUDY     0  -6  78 N5        30.06R WCI -10
THUNDER BAY    PTSUNNY    9   0  66 N8        30.07F WCI  -4
SIOUX LOOKOUT  PTCLDY    -2  -6  84 CALM      30.09R
TORONTO        CLOUDY    39  37  93 E16G23    29.74F
BIG TROUT LK   PTCLDY   -13 -17  84 VRB2      30.21R
PICKLE LAKE    FLURRIES  -2  -6  84 N5        30.10F WCI -12
DRYDEN         CLEAR      1  -2  85 NE6       30.07S WCI -10
KENORA         PTCLDY     3  -2  78 NE5       30.08S WCI  -6
$$
                *** MANITOBA***

CITY           SKY/WX    TMP DP  RH WIND       PRES   REMARKS
BRANDON        PTCLDY    12   9  85 NW2       30.16F
DAUPHIN        CLEAR     10   7  85 CALM      30.18S
ISLAND LAKE    CRYSTALS -11 -17  77 NE3       30.22S
PILOT MOUND      N/A     14  12  92 NE2         N/A
THE PAS        CLOUDY    -2  -8  78 CALM      30.19S
THOMPSON       PTCLDY   -22 -27  76 CALM      30.26S
WINNIPEG       PTCLDY     5   0  78 N6        30.20R WCI  -6
LYNN LAKE      CLOUDY   -20 -26  76 E3        30.17F
CHURCHILL      CLOUDY   -17 -20  83 W7        30.36F WCI -33
GILLAM         MOCLDY   -15 -18  84 N2        30.31S
$$
                ***SASKATCHEWAN***

CITY           SKY/WX    TMP DP  RH WIND       PRES   REMARKS
ESTEVAN        PTCLDY    16  12  86 SW7       30.12S WCI   6
KINDERSLEY     MOCLDY    18  16  93 W3        30.05R
LLOYDMINSTER   CLOUDY    16  14  93 NW7       30.06S WCI   6
PRINCE ALBERT  CLOUDY     5   1  85 SE3       30.11F
REGINA         MOCLDY    18  14  86 SW5       30.10F WCI  11
YORKTON        CLOUDY    14  10  85 S6        30.12S WC



USA.gov is the U.S. government's official web portal to all federal, state and local government web resources and services.